Location: Karcze
(52.0945°N, 22.4786°E)
Time: 22:49:19
(UTC+00:00)

Transit 4A - Visible Passes

Search period start: 28 July 2021 00:00
Search period end: 07 August 2021 00:00
Orbit: 872 x 972 km, 66.8° (Epoch: 28 July)

Date Brightness Start Highest point End Pass type
(mag) Time Alt. Az. Time Alt. Az. Time Alt. Az.
28 Jul 9.0 01:31:11 10° W 01:36:30 34° NNW 01:41:49 10° NNE visible
28 Jul 9.1 22:11:55 21° SE 22:13:15 22° ESE 22:17:39 10° ENE visible
28 Jul 7.8 23:55:24 25° SW 23:58:57 84° NW 00:04:50 10° NE visible
29 Jul 9.3 01:41:03 10° W 01:46:06 29° NNW 01:51:09 10° NNE visible
29 Jul 8.7 22:20:47 28° SE 22:22:18 31° ESE 22:27:22 10° NE visible
30 Jul 8.1 00:04:17 21° WSW 00:08:19 64° NW 00:14:08 10° NE visible
30 Jul 9.6 01:51:01 10° WNW 01:55:45 25° NNW 02:00:31 10° NNE visible
30 Jul 8.3 22:29:38 34° SSE 22:31:24 43° ESE 22:36:54 10° NE visible
31 Jul 8.5 00:13:07 15° WSW 00:17:45 49° NW 00:23:25 10° NE visible
31 Jul 9.8 02:00:59 10° WNW 02:05:28 22° NNW 02:09:56 10° NE visible
31 Jul 9.7 20:54:57 12° ESE 20:55:25 12° ESE 20:57:30 10° E visible
31 Jul 7.9 22:38:25 37° S 22:40:35 60° ESE 22:46:20 10° NE visible
01 Aug 8.9 00:21:55 11° WSW 00:27:14 39° NW 00:32:43 10° NNE visible
01 Aug 9.9 02:10:56 10° WNW 02:15:12 20° N 02:19:28 10° NE visible
01 Aug 9.3 21:03:42 18° ESE 21:04:20 18° ESE 21:08:06 10° ENE visible
01 Aug 7.7 22:47:11 34° SSW 22:49:50 81° SE 22:55:42 10° NE visible
02 Aug 9.2 00:31:35 10° W 00:36:48 32° NNW 00:42:01 10° NNE visible
02 Aug 8.9 21:12:24 24° SE 21:13:20 25° ESE 21:18:01 10° ENE visible
02 Aug 7.8 22:55:53 28° SW 22:59:09 76° NW 23:05:01 10° NE visible
03 Aug 9.5 00:41:29 10° W 00:46:25 27° NNW 00:51:21 10° NNE visible
03 Aug 8.5 21:21:03 31° SE 21:22:25 35° ESE 21:27:39 10° NE visible
03 Aug 8.2 23:04:31 20° WSW 23:08:33 58° NW 23:14:19 10° NE visible
04 Aug 9.8 00:51:27 10° WNW 00:56:05 24° NNW 01:00:44 10° NNE visible
04 Aug 8.0 21:29:37 35° SSE 21:31:33 49° ESE 21:37:09 10° NE visible
04 Aug 8.7 23:13:05 13° WSW 23:17:59 45° NW 23:23:37 10° NNE visible
05 Aug 10.0 01:01:24 10° WNW 01:05:48 21° NNW 01:10:12 10° NE visible
05 Aug 9.4 19:54:38 14° ESE 19:55:28 14° ESE 19:58:18 10° ENE visible
05 Aug 7.7 21:38:06 33° SSW 21:40:45 67° ESE 21:46:33 10° NE visible
05 Aug 9.1 23:22:08 10° W 23:27:30 36° NW 23:32:54 10° NNE visible
06 Aug 10.1 01:11:21 10° NW 01:15:33 20° N 01:19:46 10° NE visible
06 Aug 9.1 20:03:01 19° SE 20:04:25 20° ESE 20:08:33 10° ENE visible
06 Aug 7.7 21:46:27 25° SW 21:50:02 89° E 21:55:54 10° NE visible
06 Aug 9.4 23:31:58 10° W 23:37:05 30° NNW 23:42:13 10° NNE visible
